Location: Korlamanda
(17.0379°N, 80.7732°E)
Time: 23:34:47
(UTC+00:00)

Daily predictions for brighter satellites

Satellite Brightness Start Highest point End
(mag) Time Altitude Azimuth Time Altitude Azimuth Time Altitude Azimuth
NOSS 3-4 (A) 3.2 13:20:19 10° SSW 13:26:01 81° ESE 13:31:41 10° NNE
NOSS 3-4 (C) 3.2 13:20:20 10° SSW 13:26:04 80° ESE 13:31:47 10° NNE
Cosmos 1602 4.4 13:23:03 10° NNE 13:26:31 34° E 13:29:58 10° SSE
GPS 2-17 Rocket1 3.5 13:26:15 10° W 13:31:01 59° SSW 13:35:43 10° ESE
Cosmos 1980 Rocket 3.8 13:29:53 10° SE 13:32:29 13° E 13:35:05 10° ENE
Cosmos 1782 3.4 13:33:08 10° SSW 13:37:00 60° W 13:40:53 10° N
Cosmos 2061 Rocket 4.0 13:34:18 10° S 13:40:30 73° E 13:46:39 10° N
CZ-4C R/B 2.7 13:39:48 10° N 13:42:51 85° WNW 13:45:55 10° SSW
OBJECT-B 2.2 13:43:52 14° ESE 13:45:18 18° ENE 13:47:23 10° NNE
Okean-O 4.0 13:47:20 13° ESE 13:49:58 22° ENE 13:53:20 10° NNE
Cosmos 1697 Rocket 2.8 13:45:39 10° S 13:51:10 56° ESE 13:56:41 10° NNE
Cosmos 1725 Rocket 4.1 13:44:52 10° S 13:51:10 84° W 13:57:30 10° N
Cosmos 540 Rocket 3.5 13:47:41 10° N 13:52:46 62° ENE 13:57:50 10° SSE
Cosmos 1666 3.5 13:49:39 10° NNE 13:53:01 31° E 13:55:26 16° SE
Cosmos 1486 Rocket 4.5 13:49:37 10° SSE 13:54:30 38° E 13:59:22 10° NNE
Cosmos 2360 4.2 13:50:17 10° S 13:55:49 59° ESE 14:01:23 10° NNE
Cosmos 2344 3.7 13:48:04 10° SSW 13:57:01 63° ESE 14:04:19 10° NE
Cosmos 1500 3.0 13:53:35 10° N 13:57:22 82° E 14:01:07 10° S
Aurora 2 Rocket 2.8 13:53:49 10° W 13:58:22 49° SSW 14:00:39 20° SE
Cosmos 468 Rocket 4.4 13:54:02 10° NNW 13:59:17 65° WSW 14:04:31 10° S
Sakura Rocket 3.9 13:59:29 10° WNW 14:05:22 51° NNE 14:08:27 19° E
CZ-4B R/B 4.4 14:00:28 10° S 14:05:23 40° W 14:10:23 10° NNW
SWIFT 2.7 14:02:16 10° W 14:06:22 58° N 14:09:40 15° ENE
CENTAUR R/B 3.9 14:03:11 10° N 14:11:21 40° ENE 14:16:38 22° ESE
Cosmos 841 Rocket 3.5 14:07:17 10° N 14:12:24 65° ENE 14:16:01 20° SSE
Cosmos 2297 Rocket 3.7 14:11:40 10° NNE 14:15:28 18° ENE 14:16:27 18° E
MetOp-A 4.5 14:15:36 26° E 14:16:13 27° ENE 14:19:38 10° NNE
Cosmos 1500 Rocket 4.2 14:11:57 10° NNW 14:16:17 58° W 14:20:38 10° S
Cosmos 2098 Rocket 1.9 14:13:35 10° N 14:16:26 88° W 14:17:44 30° S
Cosmos 1328 Rocket 3.5 14:14:34 15° SSE 14:18:00 56° E 14:22:12 10° NNE
COSMOS 2487 2.1 14:16:17 10° NNW 14:19:22 77° WSW 14:20:32 34° S
USA 234 3.3 14:15:05 22° SE 14:19:35 71° NE 14:26:06 10° NNW
Meteor 1-10 Rocket 4.1 14:16:18 10° S 14:21:48 71° E 14:27:18 10° NNE
Meteor 1-5 Rocket 4.2 14:17:40 10° N 14:22:50 54° E 14:25:29 28° SSE
Cosmos 1544 3.7 14:19:37 10° NNE 14:22:37 35° ENE 14:22:37 35° ENE
Ariane 3 Deb 4.0 14:14:19 10° WSW 14:23:07 28° SSW 14:24:37 23° SSE
Cosmos 1503 Rocket 4.3 14:20:28 19° SSE 14:23:44 41° E 14:28:39 10° NNE
H-2A R/B 1.8 14:22:35 10° NNE 14:26:42 74° ESE 14:30:03 15° S
Meteor 1-27 Rocket 3.9 14:28:27 26° SSE 14:31:19 49° E 14:36:51 10° NNE
Cosmos 1400 Rocket 3.9 14:29:01 10° NNW 14:32:43 42° W 14:35:55 13° SSW
Tsikada Rocket 3.9 14:27:10 10° N 14:33:23 79° E 14:37:39 21° S
Delta 2 Rocket 2.9 14:32:36 10° NW 14:35:59 63° NNE 14:36:08 63° NE
deb Chang Zheng 4 4.2 14:35:40 19° S 14:38:19 49° WSW 14:42:18 10° NNW
Cosmos 1151 Rocket 4.4 14:35:03 10° SSW 14:39:02 37° W 14:42:59 10° NNW
Meteor 1-14 Rocket 4.1 14:33:23 10° N 14:39:10 78° E 14:41:54 32° SSE
Cosmos 2278 4.2 14:40:37 38° E 14:40:37 38° E 14:45:15 10° NE
Resurs 1-3 3.7 14:47:18 55° ENE 14:47:18 55° ENE 14:51:24 10° N
Timation 1 Rocket 4.2 14:43:50 10° NNW 14:49:50 81° ENE 14:51:39 47° SSE
Cosmos 1515 4.5 14:53:25 43° N 14:53:25 43° N 14:56:03 10° N
Cosmos 1891 Rocket 4.4 14:49:05 25° S 14:53:01 79° E 14:59:26 10° N
CZ-4 R/B 4.2 14:51:29 10° SW 14:53:23 13° W 14:55:19 10° WNW
X-37B 3.3 14:52:00 10° W 14:52:43 13° WSW 14:52:43 13° WSW
Centaur AC-72 2.9 14:48:07 10° W 14:54:02 68° SSW 14:56:15 43° SE
SJ 16-02 3.1 14:57:50 20° NNE 14:57:50 20° NNE 14:59:18 10° NNE
H-2A R/B 3.1 14:55:37 42° SSW 14:56:47 55° WSW 15:01:03 10° NNW
Cosmos 1513 Rocket 4.4 14:54:13 31° S 14:57:27 81° E 15:03:52 10° N
Cosmos 1666 Rocket 3.5 14:55:16 10° N 14:59:31 82° NNW 14:59:31 82° NNW
H-2A R/B (2) 2.1 14:56:51 10° W 14:59:37 52° SSW 14:59:37 52° SSW
Cosmos 2208 Rocket 4.3 14:55:42 10° N 15:00:34 53° ENE 15:00:34 53° ENE
Meteor 1-11 Rocket 4.3 14:55:40 10° N 15:00:41 43° ENE 15:00:41 43° ENE
SJ-6B 3.8 15:02:09 39° WSW 15:02:27 40° W 15:06:03 10° NNW
Cosmos 1340 4.0 15:04:39 34° N 15:04:39 34° N 15:06:54 10° N
CSL-04 Rocket 4.3 15:01:48 29° SSW 15:04:08 49° W 15:09:15 10° NNW
Cosmos 1633 Rocket 3.5 15:03:44 10° N 15:07:08 55° N 15:07:08 55° N
ATLAS 2AS CENTAUR R/B 3.4 15:03:20 10° SW 15:10:58 62° WNW 15:18:40 10° NNE
Cosmos 1464 Rocket 3.9 15:09:41 51° S 15:11:25 88° W 15:17:36 10° N
Cosmos 44 3.6 15:08:26 10° NNW 15:11:52 54° NW 15:11:52 54° NW
Resurs 01 Rocket 3.2 15:16:33 27° NNE 15:16:33 27° NNE 15:18:42 10° N
CZ-4B R/B 4.0 15:12:23 10° NNW 15:13:36 18° NW 15:13:36 18° NW
Cosmos 1315 Rocket 4.1 15:11:35 10° NNW 15:14:23 40° NW 15:14:23 40° NW
Cosmos 1980 Rocket 3.2 15:10:42 10° SW 15:16:00 44° WNW 15:21:21 10° N
Landsat 7 4.2 15:17:11 60° NNW 15:17:11 60° NNW 15:21:04 10° NNW
Milstar 3 Cent rocket 3.6 15:02:52 10° WNW 15:20:49 78° NNE 15:23:44 52° E
Cosmos 2227 Rocket 2.8 15:17:13 10° N 15:21:24 44° NNE 15:21:24 44° NNE
Gbstr 26 Del rocket 4.3 15:38:21 10° NW 15:43:35 55° NW 15:43:35 55° NW
NOSS 3-2 (C) 4.3 15:47:05 10° NNW 15:55:30 68° WSW 15:56:02 67° SW
Cosmos 2297 Rocket 3.6 15:54:19 10° NW 15:58:16 32° W 15:58:16 32° W
CENTAUR R/B 4.2 15:53:57 10° NW 16:02:02 38° WSW 16:03:51 35° SW
ATLAS 5 CENTAUR R/B 3.5 16:04:31 10° W 16:08:49 25° W 16:08:49 25° W
H-2A ROCKET BODY 4.2 16:40:34 10° WNW 17:15:40 63° N 17:15:40 63° N
SL-16 R/B 4.3 20:30:38 26° NNE 20:30:38 26° NNE 20:33:25 10° N
SeaSat 1 3.6 21:30:29 10° NE 21:34:38 37° E 21:34:38 37° E
Delta 7925 Rocket 4.1 21:43:40 69° WNW 21:44:17 74° NNW 21:52:30 10° ENE
Meteor 2-1 Rocket 4.4 21:39:58 10° N 21:45:34 66° E 21:46:13 61° ESE
IRS-1C 4.1 21:48:06 10° NNE 21:53:25 76° ESE 21:53:41 74° SE
H-2A R/B 3.5 21:54:08 18° N 21:54:51 19° NNE 21:59:33 10° ENE
MOS 1-B Rocket 4.4 21:49:45 11° SSE 21:55:12 55° ENE 22:00:38 10° N
ATLAS 2A CENTAUR R/B 4.3 21:42:34 22° W 21:55:20 56° NNW 22:02:49 10° ENE
Cosmos 2056 Rocket 4.5 21:57:02 34° NNW 21:57:02 34° NNW 22:00:27 10° N
ARIANE 5 R/B 2.5 21:54:32 10° NNE 21:59:31 70° ESE 22:00:02 64° SE
Cosmos 1943 Rocket 4.4 21:56:13 10° NW 21:56:31 11° NW 21:56:31 11° NW
FENGYUN 3A 3.6 21:57:20 10° N 22:02:35 67° WNW 22:02:35 67° WNW
GPS 2-12 Rocket1 3.3 22:03:26 60° NNE 22:03:26 60° NNE 22:07:26 10° ENE
Cosmos 2366 rocket 4.1 21:59:53 10° N 22:06:04 75° E 22:10:46 18° S
GPS 2-18 Rocket1 4.3 22:08:05 38° NNE 22:08:05 38° NNE 22:10:51 10° ENE
Cosmos 2341 Rocket 4.0 22:02:46 10° NNW 22:09:04 65° W 22:10:28 51° SW
ATLAS 3B CENTAUR R/B 1.7 22:12:24 54° N 22:12:24 54° N 22:17:08 10° ENE
CZ-2D R/B 3.5 22:08:37 10° NNE 22:12:32 65° E 22:12:39 64° ESE
SL-8 Rocket 3.9 22:06:33 10° N 22:12:51 75° W 22:15:40 35° S
Cosmos 1825 2.5 22:13:36 61° NNE 22:13:36 61° NNE 22:16:46 10° N
Okean 1-7 Rocket 3.6 22:16:55 64° WNW 22:16:55 64° WNW 22:21:00 10° N
Lacrosse 4 Rocket 2.6 22:17:45 30° NW 22:17:45 30° NW 22:20:41 10° N
Cosmos 2251 Rocket 3.5 22:14:02 10° NNW 22:19:12 58° WSW 22:19:39 56° SW
Delta 198 3.2 22:19:46 84° W 22:19:54 89° NNW 22:24:33 10° ENE
Palapa 6 Rocket 4.5 22:18:02 24° WNW 22:21:33 54° N 22:28:31 10° E
CZ-2C R/B 1.6 22:24:32 44° N 22:24:32 44° N 22:27:32 10° NE
ALOS 2.8 22:22:03 10° N 22:26:11 39° WNW 22:26:11 39° WNW
GPS 2-15 Rocket1 2.9 22:26:18 57° W 22:27:11 78° SSW 22:31:56 10° ESE
Cosmos 2369 Rocket 2.1 22:24:23 10° NNW 22:29:52 59° WSW 22:35:21 10° S
In-Cosmos 22 Rocket 4.5 22:29:48 40° SW 22:31:19 50° W 22:36:55 10° N
Ariane H10-3 4.1 22:28:55 29° SSW 22:31:37 38° SSE 22:59:57 10° ESE
Ariane H10-3 4.1 22:28:55 29° SSW 22:31:37 38° SSE 22:59:56 10° ESE
Cosmos 1602 Rocket 3.5 22:30:50 36° S 22:32:39 87° W 22:37:07 10° N
Cosmos 1656 Rocket 3.5 22:28:42 10° NNW 22:34:05 71° WSW 22:39:31 10° S
FALCON 9 R/B 2.5 22:21:59 10° WNW 22:35:07 72° SW 22:39:11 10° SE
Spot 4 Rocket 4.1 22:30:30 10° NNE 22:35:37 80° ESE 22:39:26 18° S
CZ-2C R/B 3.3 22:34:52 10° NNW 22:39:10 30° WNW 22:39:39 29° W
Nadezhda 3 Rocket 4.0 22:37:15 20° SSW 22:41:44 66° W 22:47:58 10° N
Cosmos 1484 Rocket 2.7 22:40:28 10° N 22:44:20 72° WNW 22:46:11 30° SSW
PSLV R/B 4.4 22:40:51 10° NNE 22:45:04 50° E 22:49:16 10° S
OAO 1 Rocket 4.5 22:43:16 31° SW 22:45:49 71° SE 22:51:06 10° ENE
Meteor 1-27 4.4 22:43:25 10° N 22:49:05 73° E 22:54:40 10° SSE
Atlas Centaur 2 4.4 22:44:50 12° SSW 22:50:26 27° SE 22:57:10 10° E
SL-08 R/B 3.7 22:49:35 10° SSE 22:54:07 63° ENE 22:58:39 10° N
SL-24 R/B 4.5 22:53:04 10° N 22:57:52 78° E 23:02:46 10° S
Cosmos 1452 Rocket 4.2 22:57:46 23° WSW 23:00:19 35° WNW 23:05:07 10° N
CZ-3 R/B 4.2 22:22:14 10° W 23:01:48 56° N 23:11:03 10° ENE
IKONOS-2 4.4 22:57:54 10° S 23:02:05 75° WSW 23:06:17 10° NNW
Cosmos 407 Rocket 4.0 22:58:52 10° NW 23:03:38 36° W 23:08:21 10° SSW
DELTA 2 DEB (DPAF) 4.3 23:00:46 10° S 23:05:00 47° W 23:09:15 10° NNW
DELTA 2 R/B (1) 4.1 23:01:38 19° WSW 23:05:20 47° NW 23:10:41 10° NE
H-2A R/B 2.8 23:05:45 10° NNE 23:09:22 73° E 23:12:58 10° S
Landsat 4 3.7 23:08:07 10° N 23:11:42 56° WNW 23:15:16 10° SSW
Cosmos 1140 Rocket 4.4 23:07:49 10° NW 23:12:10 27° W 23:16:30 10° SSW
SeaSat 1 4.2 23:09:14 10° NNW 23:12:11 16° WNW 23:14:25 12° W
SJ-6F 4.4 23:08:28 10° NNE 23:12:39 90° ENE 23:16:48 10° SSW
MINOTAUR 4 R/B 4.0 23:09:33 10° SSE 23:13:01 86° ENE 23:16:31 10° N
YAOGAN 6 2.8 23:11:48 10° N 23:15:17 48° WNW 23:18:48 10° SSW
Cosmos 1821 Rocket 4.1 23:09:26 10° NNW 23:15:40 58° W 23:21:52 10° S
Intercosmos 25 Rocket 4.4 23:14:52 10° NNW 23:19:27 63° W 23:27:06 10° S
Cosmos 1825 Rocket 3.7 23:17:23 10° SSW 23:21:44 54° W 23:26:03 10° N
CZ-4C R/B 3.0 23:19:09 10° S 23:22:35 61° W 23:26:10 10° NNW
Envisat 3.2 23:19:34 10° N 23:24:29 53° WNW 23:29:24 10° SSW
Cosmos 192 4.5 23:20:58 10° S 23:25:53 80° ESE 23:30:48 10° NNE
Cosmos 724 4.3 23:20:01 10° SSW 23:25:57 80° WNW 23:31:48 10° NNE
Cosmos 1954 Rocket 4.1 23:22:34 10° NNW 23:27:46 58° WSW 23:32:56 10° S
SJ-12 3.9 23:24:28 10° N 23:28:30 89° NW 23:32:33 10° SSW
Cosmos 1833 Rocket 2.7 23:23:30 10° SSW 23:29:05 73° WNW 23:34:40 10° NNE
Cosmos 1869 4.3 23:29:33 10° NW 23:32:46 25° W 23:35:56 10° SSW
Meteor 1-31 Rocket 4.0 23:31:07 10° NNE 23:34:43 44° E 23:38:20 10° S
Cosmos 2058 3.4 23:32:35 10° SSW 23:36:24 39° W 23:40:14 10° NNW
Intelsat 5-3 Rocket 4.4 23:32:26 10° WSW 23:48:24 90° N 23:54:01 10° ENE
